sat.trackr.live / text

‹ back to catalog

STARLINK-35432

NORAD 66021 · 2025-232S

PAYLOAD ACTIVE UNKNOWN

§ Identity

Operator
Country
US
Launch date
2025-10-16
Launch site
AFETR
Launch vehicle
Mass (kg)
RCS (m²)

Purposes: comms

External: N2YO · Heavens-Above · Gunter

§ Orbital elements

Epoch: 2026-05-25T03:52:15.976128Z

Period
94.11 min
Inclination
53.1599°
Eccentricity
0.0001336
Mean motion
15.30203186 rev/d
Perigee alt
474.3 km
Apogee alt
476.1 km
Semi-major
6,853.3 km
B*
3.2146e-4
RAAN
108.7079°
Arg perigee
90.2577°
Mean anomaly
269.8576°
Rev number
3,514

§ Raw data

STARLINK-354321 66021U 25232S   26145.16129602  .00009174  00000+0  32146-3 0  99932 66021  53.1599 108.7079 0001336  90.2577 269.8576 15.30203186 35149

JSON: /api/v1/satellites/66021 · /tle

For live sub-satellite position, see the globe view (requires WebGL).

§ Visibility from observer

Set your observer location to see the next 7 days of passes ≥ 10°. The values pass through the URL so the page stays shareable.

No JS? Fill the form by hand. The geolocation button needs JavaScript.